Time,TemperatureF,DewpointF,PressureIn,WindDirection,WindDirectionDegrees,WindSpeedMPH,WindSpeedGustMPH,Humidity,HourlyPrecipIn,Conditions,Clouds,dailyrainin,SoftwareType,DateUTC
2013-10-28 00:01:00,31.9,29.8,30.09,NE,53,0.0,1.0,92,0.00,,,0.00,VWS V14.01,2013-10-28 04:01:00,
2013-10-28 00:02:00,31.9,29.8,30.09,NE,53,0.0,1.0,92,0.00,,,0.00,VWS V14.01,2013-10-28 04:02:00,
2013-10-28 00:08:00,31.8,30.0,30.09,NE,53,0.0,2.0,93,0.00,,,0.00,VWS V14.01,2013-10-28 04:08:00,
2013-10-28 00:13:00,31.7,29.6,30.09,NE,53,0.0,2.0,92,0.00,,,0.00,VWS V14.01,2013-10-28 04:13:00,
2013-10-28 00:18:00,31.6,29.5,30.09,NE,53,1.0,2.0,92,0.00,,,0.00,VWS V14.01,2013-10-28 04:18:00,
2013-10-28 00:23:00,31.5,29.7,30.09,NE,53,1.0,2.0,93,0.00,,,0.00,VWS V14.01,2013-10-28 04:23:00,
2013-10-28 00:28:00,31.4,29.6,30.09,NE,53,1.0,2.0,93,0.00,,,0.00,VWS V14.01,2013-10-28 04:28:00,
2013-10-28 00:33:00,31.3,29.5,30.09,NE,53,2.0,2.0,93,0.00,,,0.00,VWS V14.01,2013-10-28 04:33:00,
2013-10-28 00:38:00,31.2,29.4,30.09,NE,53,2.0,2.0,93,0.00,,,0.00,VWS V14.01,2013-10-28 04:38:00,
2013-10-28 00:43:00,31.2,29.4,30.09,NE,53,1.0,3.0,93,0.00,,,0.00,VWS V14.01,2013-10-28 04:43:00,
2013-10-28 00:48:00,31.1,29.3,30.10,NE,53,0.0,3.0,93,0.00,,,0.00,VWS V14.01,2013-10-28 04:48:00,
2013-10-28 00:53:00,31.0,29.2,30.10,NE,53,0.0,3.0,93,0.00,,,0.00,VWS V14.01,2013-10-28 04:53:00,
2013-10-28 00:59:00,30.9,29.1,30.10,NE,53,0.0,3.0,93,0.00,,,0.00,VWS V14.01,2013-10-28 04:59:00,
2013-10-28 01:04:00,30.8,29.0,30.10,NE,53,1.0,2.0,93,0.00,,,0.00,VWS V14.01,2013-10-28 05:04:00,
2013-10-28 01:09:00,30.7,28.9,30.10,NE,53,0.0,2.0,93,0.00,,,0.00,VWS V14.01,2013-10-28 05:09:00,
2013-10-28 01:14:00,30.6,28.8,30.10,NE,53,1.0,2.0,93,0.00,,,0.00,VWS V14.01,2013-10-28 05:14:00,
2013-10-28 01:19:00,30.6,29.1,30.10,NE,53,1.0,2.0,94,0.00,,,0.00,VWS V14.01,2013-10-28 05:19:00,
2013-10-28 01:24:00,30.6,29.1,30.10,NE,53,0.0,3.0,94,0.00,,,0.00,VWS V14.01,2013-10-28 05:24:00,
2013-10-28 01:29:00,30.5,29.0,30.11,NE,53,1.0,3.0,94,0.00,,,0.00,VWS V14.01,2013-10-28 05:29:00,
2013-10-28 01:34:00,30.4,28.9,30.11,NE,53,2.0,3.0,94,0.00,,,0.00,VWS V14.01,2013-10-28 05:34:00,
2013-10-28 01:39:00,30.4,28.9,30.11,NE,53,2.0,3.0,94,0.00,,,0.00,VWS V14.01,2013-10-28 05:39:00,
2013-10-28 01:45:00,30.5,29.0,30.11,NE,53,2.0,3.0,94,0.00,,,0.00,VWS V14.01,2013-10-28 05:45:00,
2013-10-28 01:50:00,30.5,29.0,30.11,NE,53,2.0,3.0,94,0.00,,,0.00,VWS V14.01,2013-10-28 05:50:00,
2013-10-28 01:55:00,30.5,29.0,30.11,NE,53,1.0,3.0,94,0.00,,,0.00,VWS V14.01,2013-10-28 05:55:00,
2013-10-28 02:00:00,30.4,28.9,30.11,NE,53,0.0,3.0,94,0.00,,,0.00,VWS V14.01,2013-10-28 06:00:00,
2013-10-28 02:05:00,30.3,28.8,30.11,NE,53,0.0,0.0,94,0.00,,,0.00,VWS V14.01,2013-10-28 06:05:00,
2013-10-28 02:10:00,30.2,28.7,30.11,NE,53,0.0,0.0,94,0.00,,,0.00,VWS V14.01,2013-10-28 06:10:00,
2013-10-28 02:15:00,30.1,28.6,30.11,NE,53,0.0,0.0,94,0.00,,,0.00,VWS V14.01,2013-10-28 06:15:00,
2013-10-28 02:20:00,30.0,28.5,30.11,NE,53,1.0,2.0,94,0.00,,,0.00,VWS V14.01,2013-10-28 06:20:00,
2013-10-28 02:25:00,29.9,28.4,30.11,NE,53,1.0,2.0,94,0.00,,,0.00,VWS V14.01,2013-10-28 06:25:00,
2013-10-28 02:31:00,29.9,28.6,30.11,NE,53,0.0,0.0,95,0.00,,,0.00,VWS V14.01,2013-10-28 06:31:00,
2013-10-28 02:36:00,29.9,28.6,30.11,NE,53,0.0,2.0,95,0.00,,,0.00,VWS V14.01,2013-10-28 06:36:00,
2013-10-28 02:41:00,29.8,28.5,30.11,NE,53,0.0,2.0,95,0.00,,,0.00,VWS V14.01,2013-10-28 06:41:00,
2013-10-28 02:46:00,29.8,28.5,30.11,NE,53,0.0,2.0,95,0.00,,,0.00,VWS V14.01,2013-10-28 06:46:00,
2013-10-28 02:51:00,29.7,28.5,30.11,NE,53,0.0,2.0,95,0.00,,,0.00,VWS V14.01,2013-10-28 06:51:00,
2013-10-28 02:56:00,29.6,28.4,30.11,NE,53,0.0,2.0,95,0.00,,,0.00,VWS V14.01,2013-10-28 06:56:00,
2013-10-28 03:01:00,29.6,28.4,30.11,NE,53,1.0,2.0,95,0.00,,,0.00,VWS V14.01,2013-10-28 07:01:00,
2013-10-28 03:06:00,29.6,28.4,30.11,NE,53,0.0,2.0,95,0.00,,,0.00,VWS V14.01,2013-10-28 07:06:00,
2013-10-28 03:11:00,29.5,28.2,30.11,NE,53,0.0,2.0,95,0.00,,,0.00,VWS V14.01,2013-10-28 07:11:00,
2013-10-28 03:17:00,29.4,28.1,30.11,NE,53,0.0,2.0,95,0.00,,,0.00,VWS V14.01,2013-10-28 07:17:00,
2013-10-28 03:22:00,29.3,28.0,30.11,NE,53,0.0,2.0,95,0.00,,,0.00,VWS V14.01,2013-10-28 07:22:00,
2013-10-28 03:27:00,29.2,28.0,30.11,NE,53,0.0,2.0,95,0.00,,,0.00,VWS V14.01,2013-10-28 07:27:00,
2013-10-28 03:32:00,29.0,27.8,30.11,NE,53,1.0,2.0,95,0.00,,,0.00,VWS V14.01,2013-10-28 07:32:00,
2013-10-28 03:37:00,29.1,27.9,30.10,NE,53,0.0,2.0,95,0.00,,,0.00,VWS V14.01,2013-10-28 07:37:00,
2013-10-28 03:42:00,29.0,27.8,30.10,NE,53,0.0,2.0,95,0.00,,,0.00,VWS V14.01,2013-10-28 07:42:00,
2013-10-28 03:47:00,29.0,28.0,30.11,NE,53,0.0,2.0,96,0.00,,,0.00,VWS V14.01,2013-10-28 07:47:00,
2013-10-28 03:52:00,29.0,28.0,30.11,NE,53,0.0,2.0,96,0.00,,,0.00,VWS V14.01,2013-10-28 07:52:00,
2013-10-28 03:58:00,28.9,27.6,30.11,NE,53,0.0,2.0,95,0.00,,,0.00,VWS V14.01,2013-10-28 07:58:00,
2013-10-28 04:03:00,28.8,27.5,30.11,NE,53,0.0,0.0,95,0.00,,,0.00,VWS V14.01,2013-10-28 08:03:00,
2013-10-28 04:08:00,28.7,27.5,30.11,NE,53,1.0,1.0,95,0.00,,,0.00,VWS V14.01,2013-10-28 08:08:00,
2013-10-28 04:13:00,28.7,27.7,30.11,NE,53,0.0,1.0,96,0.00,,,0.00,VWS V14.01,2013-10-28 08:13:00,
2013-10-28 04:18:00,28.8,27.8,30.11,NE,53,0.0,2.0,96,0.00,,,0.00,VWS V14.01,2013-10-28 08:18:00,
2013-10-28 04:23:00,28.8,27.8,30.11,NE,53,0.0,2.0,96,0.00,,,0.00,VWS V14.01,2013-10-28 08:23:00,
2013-10-28 04:28:00,28.7,27.7,30.11,NE,53,0.0,2.0,96,0.00,,,0.00,VWS V14.01,2013-10-28 08:28:00,
2013-10-28 04:33:00,28.7,27.7,30.11,NE,53,0.0,1.0,96,0.00,,,0.00,VWS V14.01,2013-10-28 08:33:00,
2013-10-28 04:38:00,28.6,27.6,30.12,NE,53,0.0,1.0,96,0.00,,,0.00,VWS V14.01,2013-10-28 08:38:00,
2013-10-28 04:44:00,28.6,27.6,30.12,NE,53,0.0,1.0,96,0.00,,,0.00,VWS V14.01,2013-10-28 08:44:00,
2013-10-28 04:49:00,28.5,27.5,30.12,NE,53,0.0,1.0,96,0.00,,,0.00,VWS V14.01,2013-10-28 08:49:00,
2013-10-28 04:54:00,28.5,27.5,30.12,NE,53,0.0,2.0,96,0.00,,,0.00,VWS V14.01,2013-10-28 08:54:00,
2013-10-28 04:59:00,28.5,27.5,30.12,NE,53,0.0,2.0,96,0.00,,,0.00,VWS V14.01,2013-10-28 08:59:00,
2013-10-28 05:04:00,28.5,27.5,30.12,NE,53,0.0,0.0,96,0.00,,,0.00,VWS V14.01,2013-10-28 09:04:00,
2013-10-28 05:09:00,28.4,27.4,30.12,NE,53,0.0,0.0,96,0.00,,,0.00,VWS V14.01,2013-10-28 09:09:00,
2013-10-28 05:14:00,28.4,27.4,30.12,NE,53,0.0,1.0,96,0.00,,,0.00,VWS V14.01,2013-10-28 09:14:00,
2013-10-28 05:19:00,28.4,27.4,30.12,NE,53,0.0,1.0,96,0.00,,,0.00,VWS V14.01,2013-10-28 09:19:00,
2013-10-28 05:24:00,28.4,27.4,30.12,NE,53,0.0,1.0,96,0.00,,,0.00,VWS V14.01,2013-10-28 09:24:00,
2013-10-28 05:30:00,28.4,27.4,30.12,NE,53,1.0,2.0,96,0.00,,,0.00,VWS V14.01,2013-10-28 09:30:00,
2013-10-28 05:35:00,28.4,27.4,30.13,NE,53,1.0,2.0,96,0.00,,,0.00,VWS V14.01,2013-10-28 09:35:00,
2013-10-28 05:40:00,28.3,27.3,30.12,NE,53,1.0,2.0,96,0.00,,,0.00,VWS V14.01,2013-10-28 09:40:00,
2013-10-28 05:45:00,28.3,27.3,30.13,NE,53,0.0,2.0,96,0.00,,,0.00,VWS V14.01,2013-10-28 09:45:00,
2013-10-28 05:50:00,28.3,27.3,30.13,NE,53,0.0,2.0,96,0.00,,,0.00,VWS V14.01,2013-10-28 09:50:00,
2013-10-28 05:55:00,28.3,27.3,30.13,NE,53,1.0,2.0,96,0.00,,,0.00,VWS V14.01,2013-10-28 09:55:00,
2013-10-28 06:00:00,28.2,27.2,30.13,NE,53,0.0,0.0,96,0.00,,,0.00,VWS V14.01,2013-10-28 10:00:00,
2013-10-28 06:05:00,28.2,27.2,30.13,NE,53,0.0,0.0,96,0.00,,,0.00,VWS V14.01,2013-10-28 10:05:00,
2013-10-28 06:10:00,28.1,27.1,30.13,NE,53,0.0,0.0,96,0.00,,,0.00,VWS V14.01,2013-10-28 10:10:00,
2013-10-28 06:16:00,28.0,27.0,30.13,NE,53,0.0,0.0,96,0.00,,,0.00,VWS V14.01,2013-10-28 10:16:00,
2013-10-28 06:21:00,27.9,26.9,30.13,NE,53,0.0,0.0,96,0.00,,,0.00,VWS V14.01,2013-10-28 10:21:00,
2013-10-28 06:26:00,27.8,26.8,30.14,NE,53,0.0,0.0,96,0.00,,,0.00,VWS V14.01,2013-10-28 10:26:00,
2013-10-28 06:31:00,27.7,26.7,30.14,NE,53,0.0,0.0,96,0.00,,,0.00,VWS V14.01,2013-10-28 10:31:00,
2013-10-28 06:36:00,27.8,26.8,30.14,NE,53,0.0,0.0,96,0.00,,,0.00,VWS V14.01,2013-10-28 10:36:00,
2013-10-28 06:41:00,27.8,26.8,30.14,NE,53,0.0,0.0,96,0.00,,,0.00,VWS V14.01,2013-10-28 10:41:00,
2013-10-28 06:46:00,27.8,26.8,30.14,NE,53,0.0,0.0,96,0.00,,,0.00,VWS V14.01,2013-10-28 10:46:00,
2013-10-28 06:51:00,27.7,26.7,30.14,NE,53,0.0,0.0,96,0.00,,,0.00,VWS V14.01,2013-10-28 10:51:00,
2013-10-28 06:57:00,27.6,26.6,30.14,NE,53,0.0,0.0,96,0.00,,,0.00,VWS V14.01,2013-10-28 10:57:00,
2013-10-28 07:02:00,27.6,26.6,30.14,NE,53,0.0,0.0,96,0.00,,,0.00,VWS V14.01,2013-10-28 11:02:00,
2013-10-28 07:07:00,27.5,26.5,30.15,NE,53,0.0,0.0,96,0.00,,,0.00,VWS V14.01,2013-10-28 11:07:00,
2013-10-28 07:12:00,27.5,26.5,30.15,NE,53,0.0,0.0,96,0.00,,,0.00,VWS V14.01,2013-10-28 11:12:00,
2013-10-28 07:17:00,27.5,26.5,30.15,NE,53,0.0,0.0,96,0.00,,,0.00,VWS V14.01,2013-10-28 11:17:00,
2013-10-28 07:22:00,27.4,26.4,30.15,NE,53,0.0,0.0,96,0.00,,,0.00,VWS V14.01,2013-10-28 11:22:00,
2013-10-28 07:27:00,27.2,26.2,30.16,NE,53,0.0,0.0,96,0.00,,,0.00,VWS V14.01,2013-10-28 11:27:00,
2013-10-28 07:32:00,27.1,26.1,30.16,NE,53,0.0,0.0,96,0.00,,,0.00,VWS V14.01,2013-10-28 11:32:00,
2013-10-28 07:37:00,27.2,26.2,30.16,NE,53,0.0,0.0,96,0.00,,,0.00,VWS V14.01,2013-10-28 11:37:00,
2013-10-28 07:42:00,27.3,26.3,30.16,NE,53,0.0,0.0,96,0.00,,,0.00,VWS V14.01,2013-10-28 11:42:00,
2013-10-28 07:48:00,27.4,26.7,30.16,NE,53,0.0,0.0,97,0.00,,,0.00,VWS V14.01,2013-10-28 11:48:00,
2013-10-28 07:53:00,27.4,26.7,30.17,NE,53,0.0,0.0,97,0.00,,,0.00,VWS V14.01,2013-10-28 11:53:00,
2013-10-28 07:58:00,27.4,26.7,30.17,NE,53,0.0,0.0,97,0.00,,,0.00,VWS V14.01,2013-10-28 11:58:00,
2013-10-28 08:03:00,27.5,26.8,30.17,NE,53,1.0,1.0,97,0.00,,,0.00,VWS V14.01,2013-10-28 12:03:00,
2013-10-28 08:08:00,27.6,26.9,30.17,NE,53,0.0,2.0,97,0.00,,,0.00,VWS V14.01,2013-10-28 12:08:00,
2013-10-28 08:13:00,27.7,27.0,30.17,NE,53,1.0,2.0,97,0.00,,,0.00,VWS V14.01,2013-10-28 12:13:00,
2013-10-28 08:18:00,27.8,27.1,30.17,NE,53,0.0,2.0,97,0.00,,,0.00,VWS V14.01,2013-10-28 12:18:00,
2013-10-28 08:23:00,28.0,27.3,30.17,NE,53,0.0,2.0,97,0.00,,,0.00,VWS V14.01,2013-10-28 12:23:00,
2013-10-28 08:28:00,28.3,27.6,30.17,NE,53,0.0,2.0,97,0.00,,,0.00,VWS V14.01,2013-10-28 12:28:00,
2013-10-28 08:34:00,28.7,28.0,30.18,NE,53,0.0,1.0,97,0.00,,,0.00,VWS V14.01,2013-10-28 12:34:00,
2013-10-28 08:39:00,29.0,28.3,30.18,NE,53,0.0,1.0,97,0.00,,,0.00,VWS V14.01,2013-10-28 12:39:00,
2013-10-28 08:44:00,29.8,29.0,30.18,NE,53,0.0,1.0,97,0.00,,,0.00,VWS V14.01,2013-10-28 12:44:00,
2013-10-28 08:49:00,30.7,30.2,30.18,NE,53,0.0,1.0,98,0.00,,,0.00,VWS V14.01,2013-10-28 12:49:00,
2013-10-28 08:54:00,31.6,31.1,30.19,NE,53,0.0,1.0,98,0.00,,,0.00,VWS V14.01,2013-10-28 12:54:00,
2013-10-28 08:59:00,32.5,32.0,30.19,NE,53,0.0,1.0,98,0.00,,,0.00,VWS V14.01,2013-10-28 12:59:00,
2013-10-28 09:04:00,33.5,33.0,30.19,NE,53,0.0,0.0,98,0.00,,,0.00,VWS V14.01,2013-10-28 13:04:00,
2013-10-28 09:09:00,34.5,34.0,30.19,NE,53,1.0,1.0,98,0.00,,,0.00,VWS V14.01,2013-10-28 13:09:00,
2013-10-28 09:14:00,35.6,35.1,30.19,NE,53,0.0,1.0,98,0.00,,,0.00,VWS V14.01,2013-10-28 13:14:00,
2013-10-28 09:20:00,36.6,36.1,30.19,NE,53,0.0,1.0,98,0.00,,,0.00,VWS V14.01,2013-10-28 13:20:00,
2013-10-28 09:25:00,37.4,36.4,30.19,NE,53,0.0,1.0,96,0.00,,,0.00,VWS V14.01,2013-10-28 13:25:00,
2013-10-28 09:30:00,38.3,36.7,30.20,NE,53,2.0,2.0,94,0.00,,,0.00,VWS V14.01,2013-10-28 13:30:00,
2013-10-28 09:35:00,39.1,37.0,30.19,NE,53,0.0,2.0,92,0.00,,,0.00,VWS V14.01,2013-10-28 13:35:00,
2013-10-28 09:40:00,39.8,37.1,30.19,NE,53,0.0,2.0,90,0.00,,,0.00,VWS V14.01,2013-10-28 13:40:00,
2013-10-28 09:45:00,40.6,37.6,30.19,NE,53,1.0,2.0,89,0.00,,,0.00,VWS V14.01,2013-10-28 13:45:00,
2013-10-28 09:50:00,41.6,38.6,30.19,ENE,67,0.0,3.0,89,0.00,,,0.00,VWS V14.01,2013-10-28 13:50:00,
2013-10-28 09:55:00,42.3,38.7,30.19,ENE,67,0.0,3.0,87,0.00,,,0.00,VWS V14.01,2013-10-28 13:55:00,
2013-10-28 10:00:00,43.1,39.2,30.19,SE,127,0.0,0.0,86,0.00,,,0.00,VWS V14.01,2013-10-28 14:00:00,
2013-10-28 10:05:00,43.7,39.8,30.19,SE,127,0.0,2.0,86,0.00,,,0.00,VWS V14.01,2013-10-28 14:05:00,
2013-10-28 10:11:00,44.3,39.8,30.19,SE,127,1.0,2.0,84,0.00,,,0.00,VWS V14.01,2013-10-28 14:11:00,
2013-10-28 10:16:00,45.0,38.9,30.19,SW,221,1.0,4.0,79,0.00,,,0.00,VWS V14.01,2013-10-28 14:16:00,
2013-10-28 10:21:00,45.8,38.7,30.19,SSE,148,1.0,4.0,76,0.00,,,0.00,VWS V14.01,2013-10-28 14:21:00,
2013-10-28 10:26:00,46.8,39.0,30.18,SE,141,6.0,6.0,74,0.00,,,0.00,VWS V14.01,2013-10-28 14:26:00,
2013-10-28 10:31:00,47.7,37.3,30.19,SSW,205,5.0,5.0,67,0.00,,,0.00,VWS V14.01,2013-10-28 14:31:00,
2013-10-28 10:36:00,48.4,38.3,30.19,SE,126,4.0,5.0,68,0.00,,,0.00,VWS V14.01,2013-10-28 14:36:00,
2013-10-28 10:41:00,49.0,37.8,30.19,SSW,198,0.0,6.0,65,0.00,,,0.00,VWS V14.01,2013-10-28 14:41:00,
2013-10-28 10:46:00,49.5,37.4,30.19,SSE,162,2.0,8.0,63,0.00,,,0.00,VWS V14.01,2013-10-28 14:46:00,
2013-10-28 10:52:00,49.9,37.0,30.18,East,95,7.0,9.0,61,0.00,,,0.00,VWS V14.01,2013-10-28 14:52:00,
2013-10-28 10:57:00,50.4,37.0,30.18,SSE,167,4.0,9.0,60,0.00,,,0.00,VWS V14.01,2013-10-28 14:57:00,
2013-10-28 11:02:00,51.0,36.8,30.18,WSW,248,3.0,6.0,58,0.00,,,0.00,VWS V14.01,2013-10-28 15:02:00,
2013-10-28 11:07:00,51.7,37.4,30.18,SSW,211,1.0,8.0,58,0.00,,,0.00,VWS V14.01,2013-10-28 15:07:00,
2013-10-28 11:12:00,52.3,37.1,30.18,SSW,198,6.0,8.0,56,0.00,,,0.00,VWS V14.01,2013-10-28 15:12:00,
2013-10-28 11:17:00,52.6,36.5,30.18,SE,145,4.0,9.0,54,0.00,,,0.00,VWS V14.01,2013-10-28 15:17:00,
2013-10-28 11:22:00,52.9,36.7,30.18,South,186,1.0,10.0,54,0.00,,,0.00,VWS V14.01,2013-10-28 15:22:00,
2013-10-28 11:27:00,52.9,36.7,30.18,South,173,2.0,10.0,54,0.00,,,0.00,VWS V14.01,2013-10-28 15:27:00,
2013-10-28 11:32:00,53.0,36.3,30.18,SW,227,4.0,8.0,53,0.00,,,0.00,VWS V14.01,2013-10-28 15:32:00,
2013-10-28 11:38:00,53.2,37.0,30.18,SW,215,3.0,8.0,54,0.00,,,0.00,VWS V14.01,2013-10-28 15:38:00,
2013-10-28 11:43:00,53.7,36.5,30.18,SE,144,4.0,8.0,52,0.00,,,0.00,VWS V14.01,2013-10-28 15:43:00,
2013-10-28 11:48:00,54.2,37.5,30.18,SE,146,2.0,9.0,53,0.00,,,0.00,VWS V14.01,2013-10-28 15:48:00,
2013-10-28 11:53:00,54.6,37.8,30.18,SE,136,4.0,9.0,53,0.00,,,0.00,VWS V14.01,2013-10-28 15:53:00,
2013-10-28 11:58:00,54.9,37.6,30.18,SE,141,1.0,9.0,52,0.00,,,0.00,VWS V14.01,2013-10-28 15:58:00,
2013-10-28 12:03:00,54.8,37.0,30.17,SW,236,6.0,6.0,51,0.00,,,0.00,VWS V14.01,2013-10-28 16:03:00,
2013-10-28 12:08:00,55.0,37.7,30.17,West,261,0.0,7.0,52,0.00,,,0.00,VWS V14.01,2013-10-28 16:08:00,
2013-10-28 12:13:00,55.4,37.1,30.17,South,176,7.0,9.0,50,0.00,,,0.00,VWS V14.01,2013-10-28 16:13:00,
2013-10-28 12:18:00,55.4,36.6,30.17,SW,229,1.0,9.0,49,0.00,,,0.00,VWS V14.01,2013-10-28 16:18:00,
2013-10-28 12:23:00,55.7,36.3,30.17,SSW,195,4.0,9.0,48,0.00,,,0.00,VWS V14.01,2013-10-28 16:23:00,
2013-10-28 12:28:00,55.7,37.4,30.16,South,184,2.0,9.0,50,0.00,,,0.00,VWS V14.01,2013-10-28 16:28:00,
2013-10-28 12:33:00,56.0,37.1,30.16,South,187,1.0,7.0,49,0.00,,,0.00,VWS V14.01,2013-10-28 16:33:00,
2013-10-28 12:39:00,56.1,36.7,30.16,SSW,200,3.0,10.0,48,0.00,,,0.00,VWS V14.01,2013-10-28 16:39:00,
2013-10-28 12:44:00,56.3,36.3,30.16,South,173,2.0,10.0,47,0.00,,,0.00,VWS V14.01,2013-10-28 16:44:00,
2013-10-28 12:49:00,56.7,37.2,30.16,WSW,246,1.0,10.0,48,0.00,,,0.00,VWS V14.01,2013-10-28 16:49:00,
2013-10-28 12:54:00,57.1,37.1,30.16,South,180,2.0,10.0,47,0.00,,,0.00,VWS V14.01,2013-10-28 16:54:00,
2013-10-28 12:59:00,57.1,37.1,30.15,WSW,250,6.0,11.0,47,0.00,,,0.00,VWS V14.01,2013-10-28 16:59:00,
2013-10-28 13:04:00,57.5,37.5,30.15,SW,219,3.0,8.0,47,0.00,,,0.00,VWS V14.01,2013-10-28 17:04:00,
2013-10-28 13:09:00,57.9,37.3,30.16,SSE,157,5.0,8.0,46,0.00,,,0.00,VWS V14.01,2013-10-28 17:09:00,
2013-10-28 13:14:00,57.6,37.0,30.15,SSE,154,2.0,10.0,46,0.00,,,0.00,VWS V14.01,2013-10-28 17:14:00,
2013-10-28 13:19:00,57.7,37.1,30.15,West,264,1.0,10.0,46,0.00,,,0.00,VWS V14.01,2013-10-28 17:19:00,
2013-10-28 13:25:00,57.9,37.3,30.15,WSW,256,1.0,10.0,46,0.00,,,0.00,VWS V14.01,2013-10-28 17:25:00,
2013-10-28 13:30:00,58.0,36.2,30.15,SSW,200,6.0,12.0,44,0.00,,,0.00,VWS V14.01,2013-10-28 17:30:00,
2013-10-28 13:35:00,57.9,36.7,30.15,WSW,257,4.0,9.0,45,0.00,,,0.00,VWS V14.01,2013-10-28 17:35:00,
2013-10-28 13:40:00,58.1,35.7,30.15,SE,127,5.0,12.0,43,0.00,,,0.00,VWS V14.01,2013-10-28 17:40:00,
2013-10-28 13:45:00,58.0,36.2,30.15,ESE,119,6.0,12.0,44,0.00,,,0.00,VWS V14.01,2013-10-28 17:45:00,
2013-10-28 13:50:00,58.1,36.9,30.15,WNW,299,0.0,12.0,45,0.00,,,0.00,VWS V14.01,2013-10-28 17:50:00,
2013-10-28 13:55:00,58.4,36.0,30.15,SW,224,0.0,13.0,43,0.00,,,0.00,VWS V14.01,2013-10-28 17:55:00,
2013-10-28 14:00:00,58.3,36.5,30.15,SSW,195,1.0,1.0,44,0.00,,,0.00,VWS V14.01,2013-10-28 18:00:00,
2013-10-28 14:06:00,58.6,36.8,30.15,NW,312,3.0,6.0,44,0.00,,,0.00,VWS V14.01,2013-10-28 18:06:00,
2013-10-28 14:11:00,59.0,37.1,30.15,SW,230,2.0,7.0,44,0.00,,,0.00,VWS V14.01,2013-10-28 18:11:00,
2013-10-28 14:16:00,59.3,36.2,30.15,WNW,295,3.0,8.0,42,0.00,,,0.00,VWS V14.01,2013-10-28 18:16:00,
2013-10-28 14:21:00,59.3,36.8,30.15,SE,138,1.0,8.0,43,0.00,,,0.00,VWS V14.01,2013-10-28 18:21:00,
2013-10-28 14:26:00,59.2,36.7,30.15,WSW,258,1.0,14.0,43,0.00,,,0.00,VWS V14.01,2013-10-28 18:26:00,
2013-10-28 14:31:00,58.9,35.9,30.15,West,266,3.0,4.0,42,0.00,,,0.00,VWS V14.01,2013-10-28 18:31:00,
2013-10-28 14:36:00,58.9,36.5,30.15,NNE,33,0.0,4.0,43,0.00,,,0.00,VWS V14.01,2013-10-28 18:36:00,
2013-10-28 14:41:00,59.1,36.0,30.15,WSW,244,1.0,10.0,42,0.00,,,0.00,VWS V14.01,2013-10-28 18:41:00,
2013-10-28 14:46:00,59.3,36.2,30.15,SE,142,1.0,10.0,42,0.00,,,0.00,VWS V14.01,2013-10-28 18:46:00,
2013-10-28 14:51:00,59.3,36.2,30.16,SSW,202,5.0,10.0,42,0.00,,,0.00,VWS V14.01,2013-10-28 18:51:00,
2013-10-28 14:57:00,59.4,37.5,30.15,SSE,157,0.0,10.0,44,0.00,,,0.00,VWS V14.01,2013-10-28 18:57:00,
2013-10-28 15:02:00,59.3,36.2,30.16,SSE,148,2.0,5.0,42,0.00,,,0.00,VWS V14.01,2013-10-28 19:02:00,
2013-10-28 15:07:00,59.3,36.2,30.16,NW,321,2.0,6.0,42,0.00,,,0.00,VWS V14.01,2013-10-28 19:07:00,
2013-10-28 15:12:00,58.9,36.5,30.16,SSW,194,0.0,6.0,43,0.00,,,0.00,VWS V14.01,2013-10-28 19:12:00,
2013-10-28 15:17:00,58.6,36.2,30.16,SSW,208,0.0,6.0,43,0.00,,,0.00,VWS V14.01,2013-10-28 19:17:00,
2013-10-28 15:22:00,58.6,36.8,30.16,SSW,209,1.0,7.0,44,0.00,,,0.00,VWS V14.01,2013-10-28 19:22:00,
2013-10-28 15:27:00,58.7,36.9,30.16,SE,133,1.0,7.0,44,0.00,,,0.00,VWS V14.01,2013-10-28 19:27:00,
2013-10-28 15:32:00,58.4,36.6,30.16,SSW,206,2.0,5.0,44,0.00,,,0.00,VWS V14.01,2013-10-28 19:32:00,
2013-10-28 15:37:00,57.8,36.6,30.16,SSW,198,2.0,6.0,45,0.00,,,0.00,VWS V14.01,2013-10-28 19:37:00,
2013-10-28 15:43:00,57.5,38.0,30.16,SSW,201,1.0,6.0,48,0.00,,,0.00,VWS V14.01,2013-10-28 19:43:00,
2013-10-28 15:48:00,57.3,36.2,30.17,North,355,1.0,6.0,45,0.00,,,0.00,VWS V14.01,2013-10-28 19:48:00,
2013-10-28 15:53:00,57.1,37.1,30.17,North,355,0.0,6.0,47,0.00,,,0.00,VWS V14.01,2013-10-28 19:53:00,
2013-10-28 15:58:00,57.1,39.2,30.17,ENE,60,1.0,6.0,51,0.00,,,0.00,VWS V14.01,2013-10-28 19:58:00,
2013-10-28 16:03:00,56.9,36.3,30.17,South,174,0.0,4.0,46,0.00,,,0.00,VWS V14.01,2013-10-28 20:03:00,
2013-10-28 16:08:00,56.9,36.9,30.17,SSW,207,3.0,4.0,47,0.00,,,0.00,VWS V14.01,2013-10-28 20:08:00,
2013-10-28 16:13:00,56.8,36.8,30.17,NNE,26,0.0,4.0,47,0.00,,,0.00,VWS V14.01,2013-10-28 20:13:00,
2013-10-28 16:18:00,56.7,36.2,30.17,North,360,2.0,4.0,46,0.00,,,0.00,VWS V14.01,2013-10-28 20:18:00,
2013-10-28 16:23:00,56.7,36.2,30.17,ESE,115,1.0,5.0,46,0.00,,,0.00,VWS V14.01,2013-10-28 20:23:00,
2013-10-28 16:29:00,56.6,37.7,30.18,North,355,1.0,5.0,49,0.00,,,0.00,VWS V14.01,2013-10-28 20:29:00,
2013-10-28 16:34:00,56.5,36.5,30.18,North,5,0.0,3.0,47,0.00,,,0.00,VWS V14.01,2013-10-28 20:34:00,
2013-10-28 16:39:00,56.4,37.5,30.18,NE,46,2.0,4.0,49,0.00,,,0.00,VWS V14.01,2013-10-28 20:39:00,
2013-10-28 16:44:00,56.1,37.7,30.18,East,88,0.0,6.0,50,0.00,,,0.00,VWS V14.01,2013-10-28 20:44:00,
2013-10-28 16:49:00,55.8,36.9,30.18,North,5,0.0,6.0,49,0.00,,,0.00,VWS V14.01,2013-10-28 20:49:00,
2013-10-28 16:54:00,55.6,38.3,30.18,North,5,1.0,6.0,52,0.00,,,0.00,VWS V14.01,2013-10-28 20:54:00,
2013-10-28 16:59:00,55.3,37.5,30.18,North,5,0.0,6.0,51,0.00,,,0.00,VWS V14.01,2013-10-28 20:59:00,
2013-10-28 17:04:00,55.0,37.2,30.19,NE,39,0.0,2.0,51,0.00,,,0.00,VWS V14.01,2013-10-28 21:04:00,
2013-10-28 17:09:00,54.8,37.5,30.19,ENE,63,2.0,3.0,52,0.00,,,0.00,VWS V14.01,2013-10-28 21:09:00,
2013-10-28 17:15:00,54.5,37.7,30.19,NNW,346,0.0,3.0,53,0.00,,,0.00,VWS V14.01,2013-10-28 21:15:00,
2013-10-28 17:20:00,54.3,38.0,30.19,ESE,119,1.0,3.0,54,0.00,,,0.00,VWS V14.01,2013-10-28 21:20:00,
2013-10-28 17:25:00,54.0,38.2,30.19,ESE,119,0.0,3.0,55,0.00,,,0.00,VWS V14.01,2013-10-28 21:25:00,
2013-10-28 17:30:00,53.7,37.5,30.19,NE,45,0.0,5.0,54,0.00,,,0.00,VWS V14.01,2013-10-28 21:30:00,
2013-10-28 17:35:00,53.4,37.7,30.20,East,91,0.0,5.0,55,0.00,,,0.00,VWS V14.01,2013-10-28 21:35:00,
2013-10-28 17:40:00,53.1,37.4,30.20,East,91,0.0,5.0,55,0.00,,,0.00,VWS V14.01,2013-10-28 21:40:00,
2013-10-28 17:45:00,52.7,37.5,30.20,East,91,0.0,5.0,56,0.00,,,0.00,VWS V14.01,2013-10-28 21:45:00,
2013-10-28 17:50:00,52.2,37.0,30.20,East,91,0.0,5.0,56,0.00,,,0.00,VWS V14.01,2013-10-28 21:50:00,
2013-10-28 17:55:00,51.6,36.9,30.21,East,91,0.0,5.0,57,0.00,,,0.00,VWS V14.01,2013-10-28 21:55:00,
2013-10-28 18:01:00,51.2,37.4,30.22,East,91,0.0,0.0,59,0.00,,,0.00,VWS V14.01,2013-10-28 22:01:00,
2013-10-28 18:06:00,50.9,38.0,30.22,East,91,0.0,1.0,61,0.00,,,0.00,VWS V14.01,2013-10-28 22:06:00,
2013-10-28 18:11:00,50.4,37.5,30.22,East,91,0.0,2.0,61,0.00,,,0.00,VWS V14.01,2013-10-28 22:11:00,
2013-10-28 18:16:00,50.2,37.7,30.23,East,91,0.0,2.0,62,0.00,,,0.00,VWS V14.01,2013-10-28 22:16:00,
2013-10-28 18:21:00,49.9,37.4,30.23,East,91,0.0,2.0,62,0.00,,,0.00,VWS V14.01,2013-10-28 22:21:00,
2013-10-28 18:26:00,49.7,37.2,30.23,East,91,0.0,2.0,62,0.00,,,0.00,VWS V14.01,2013-10-28 22:26:00,
2013-10-28 18:31:00,49.5,37.4,30.24,East,91,0.0,2.0,63,0.00,,,0.00,VWS V14.01,2013-10-28 22:31:00,
2013-10-28 18:36:00,49.4,37.8,30.24,East,83,0.0,2.0,64,0.00,,,0.00,VWS V14.01,2013-10-28 22:36:00,
2013-10-28 18:41:00,49.2,38.3,30.24,East,84,1.0,2.0,66,0.00,,,0.00,VWS V14.01,2013-10-28 22:41:00,
2013-10-28 18:46:00,49.0,37.4,30.25,East,84,0.0,2.0,64,0.00,,,0.00,VWS V14.01,2013-10-28 22:46:00,
2013-10-28 18:52:00,48.8,38.0,30.25,East,84,0.0,2.0,66,0.00,,,0.00,VWS V14.01,2013-10-28 22:52:00,
2013-10-28 18:57:00,48.7,37.9,30.25,East,83,0.0,2.0,66,0.00,,,0.00,VWS V14.01,2013-10-28 22:57:00,
2013-10-28 19:02:00,48.5,37.7,30.25,East,84,0.0,2.0,66,0.00,,,0.00,VWS V14.01,2013-10-28 23:02:00,
2013-10-28 19:07:00,48.2,38.5,30.26,East,84,0.0,2.0,69,0.00,,,0.00,VWS V14.01,2013-10-28 23:07:00,
2013-10-28 19:12:00,47.6,38.3,30.26,East,84,0.0,2.0,70,0.00,,,0.00,VWS V14.01,2013-10-28 23:12:00,
2013-10-28 19:17:00,47.0,38.1,30.26,East,84,0.0,2.0,71,0.00,,,0.00,VWS V14.01,2013-10-28 23:17:00,
2013-10-28 19:22:00,46.5,37.6,30.26,East,84,1.0,2.0,71,0.00,,,0.00,VWS V14.01,2013-10-28 23:22:00,
2013-10-28 19:27:00,46.1,37.2,30.26,East,84,0.0,2.0,71,0.00,,,0.00,VWS V14.01,2013-10-28 23:27:00,
2013-10-28 19:33:00,45.7,36.8,30.27,East,84,0.0,2.0,71,0.00,,,0.00,VWS V14.01,2013-10-28 23:33:00,
2013-10-28 19:38:00,45.3,37.2,30.27,East,83,1.0,2.0,73,0.00,,,0.00,VWS V14.01,2013-10-28 23:38:00,
2013-10-28 19:43:00,44.9,37.1,30.27,East,84,0.0,2.0,74,0.00,,,0.00,VWS V14.01,2013-10-28 23:43:00,
2013-10-28 19:48:00,44.5,37.1,30.27,East,84,0.0,2.0,75,0.00,,,0.00,VWS V14.01,2013-10-28 23:48:00,
2013-10-28 19:53:00,44.1,37.4,30.27,East,83,0.0,2.0,77,0.00,,,0.00,VWS V14.01,2013-10-28 23:53:00,
2013-10-28 19:58:00,43.6,37.2,30.27,East,84,0.0,2.0,78,0.00,,,0.00,VWS V14.01,2013-10-28 23:58:00,
2013-10-28 20:03:00,43.1,37.0,30.27,East,84,0.0,0.0,79,0.00,,,0.00,VWS V14.01,2013-10-29 00:03:00,
2013-10-28 20:08:00,42.8,36.8,30.28,East,84,0.0,1.0,79,0.00,,,0.00,VWS V14.01,2013-10-29 00:08:00,
2013-10-28 20:13:00,42.5,37.1,30.28,East,84,0.0,1.0,81,0.00,,,0.00,VWS V14.01,2013-10-29 00:13:00,
2013-10-28 20:18:00,42.1,37.0,30.28,East,83,0.0,2.0,82,0.00,,,0.00,VWS V14.01,2013-10-29 00:18:00,
2013-10-28 20:24:00,41.7,36.9,30.28,East,84,0.0,2.0,83,0.00,,,0.00,VWS V14.01,2013-10-29 00:24:00,
2013-10-28 20:29:00,41.4,36.9,30.28,East,83,0.0,2.0,84,0.00,,,0.00,VWS V14.01,2013-10-29 00:29:00,
2013-10-28 20:34:00,41.1,36.6,30.28,East,84,0.0,0.0,84,0.00,,,0.00,VWS V14.01,2013-10-29 00:34:00,
2013-10-28 20:39:00,40.9,36.5,30.28,East,84,0.0,1.0,84,0.00,,,0.00,VWS V14.01,2013-10-29 00:39:00,
2013-10-28 20:44:00,40.8,36.3,30.28,East,83,0.0,1.0,84,0.00,,,0.00,VWS V14.01,2013-10-29 00:44:00,
2013-10-28 20:49:00,40.6,36.5,30.28,East,84,0.0,1.0,85,0.00,,,0.00,VWS V14.01,2013-10-29 00:49:00,
2013-10-28 20:54:00,40.5,36.3,30.28,East,83,0.0,1.0,85,0.00,,,0.00,VWS V14.01,2013-10-29 00:54:00,
2013-10-28 20:59:00,40.2,36.1,30.28,East,84,0.0,1.0,85,0.00,,,0.00,VWS V14.01,2013-10-29 00:59:00,
2013-10-28 21:04:00,40.0,35.9,30.29,East,83,0.0,0.0,85,0.00,,,0.00,VWS V14.01,2013-10-29 01:04:00,
2013-10-28 21:10:00,39.9,35.8,30.29,East,83,0.0,1.0,85,0.00,,,0.00,VWS V14.01,2013-10-29 01:10:00,
2013-10-28 21:15:00,39.8,35.4,30.29,East,84,0.0,1.0,84,0.00,,,0.00,VWS V14.01,2013-10-29 01:15:00,
2013-10-28 21:20:00,39.8,34.8,30.29,East,83,0.0,2.0,82,0.00,,,0.00,VWS V14.01,2013-10-29 01:20:00,
2013-10-28 21:25:00,39.9,34.9,30.29,East,84,0.0,2.0,82,0.00,,,0.00,VWS V14.01,2013-10-29 01:25:00,
2013-10-28 21:30:00,40.0,34.7,30.29,East,83,0.0,0.0,81,0.00,,,0.00,VWS V14.01,2013-10-29 01:30:00,
2013-10-28 21:35:00,40.2,34.2,30.29,East,84,0.0,0.0,79,0.00,,,0.00,VWS V14.01,2013-10-29 01:35:00,
2013-10-28 21:40:00,40.4,34.1,30.30,East,83,0.0,0.0,78,0.00,,,0.00,VWS V14.01,2013-10-29 01:40:00,
2013-10-28 21:45:00,40.4,34.4,30.30,East,84,0.0,0.0,79,0.00,,,0.00,VWS V14.01,2013-10-29 01:45:00,
2013-10-28 21:50:00,40.3,34.6,30.30,East,84,0.0,0.0,80,0.00,,,0.00,VWS V14.01,2013-10-29 01:50:00,
2013-10-28 21:56:00,40.1,34.8,30.30,East,84,0.0,0.0,81,0.00,,,0.00,VWS V14.01,2013-10-29 01:56:00,
2013-10-28 22:01:00,39.8,34.5,30.30,East,84,0.0,0.0,81,0.00,,,0.00,VWS V14.01,2013-10-29 02:01:00,
2013-10-28 22:06:00,39.5,34.2,30.30,East,84,0.0,1.0,81,0.00,,,0.00,VWS V14.01,2013-10-29 02:06:00,
2013-10-28 22:11:00,39.3,34.3,30.30,East,84,0.0,1.0,82,0.00,,,0.00,VWS V14.01,2013-10-29 02:11:00,
2013-10-28 22:16:00,39.1,34.1,30.31,East,84,0.0,1.0,82,0.00,,,0.00,VWS V14.01,2013-10-29 02:16:00,
2013-10-28 22:21:00,38.9,33.9,30.31,East,84,0.0,1.0,82,0.00,,,0.00,VWS V14.01,2013-10-29 02:21:00,
2013-10-28 22:26:00,38.6,34.2,30.31,East,83,0.0,1.0,84,0.00,,,0.00,VWS V14.01,2013-10-29 02:26:00,
2013-10-28 22:31:00,38.4,34.3,30.31,East,83,0.0,0.0,85,0.00,,,0.00,VWS V14.01,2013-10-29 02:31:00,
2013-10-28 22:36:00,38.2,33.8,30.31,East,84,0.0,0.0,84,0.00,,,0.00,VWS V14.01,2013-10-29 02:36:00,
2013-10-28 22:42:00,37.9,33.5,30.31,East,84,0.0,0.0,84,0.00,,,0.00,VWS V14.01,2013-10-29 02:42:00,
2013-10-28 22:47:00,37.7,33.6,30.31,East,84,0.0,0.0,85,0.00,,,0.00,VWS V14.01,2013-10-29 02:47:00,
2013-10-28 22:52:00,37.5,33.4,30.31,East,84,0.0,0.0,85,0.00,,,0.00,VWS V14.01,2013-10-29 02:52:00,
2013-10-28 22:57:00,37.3,33.2,30.31,East,83,0.0,0.0,85,0.00,,,0.00,VWS V14.01,2013-10-29 02:57:00,
2013-10-28 23:02:00,37.1,33.0,30.31,East,83,0.0,0.0,85,0.00,,,0.00,VWS V14.01,2013-10-29 03:02:00,
2013-10-28 23:07:00,37.0,33.2,30.31,East,84,0.0,0.0,86,0.00,,,0.00,VWS V14.01,2013-10-29 03:07:00,
2013-10-28 23:12:00,36.8,33.0,30.32,East,83,0.0,0.0,86,0.00,,,0.00,VWS V14.01,2013-10-29 03:12:00,
2013-10-28 23:17:00,36.6,32.8,30.32,East,84,0.0,0.0,86,0.00,,,0.00,VWS V14.01,2013-10-29 03:17:00,
2013-10-28 23:22:00,36.5,32.7,30.32,East,84,0.0,0.0,86,0.00,,,0.00,VWS V14.01,2013-10-29 03:22:00,
2013-10-28 23:28:00,36.2,32.4,30.32,East,84,0.0,0.0,86,0.00,,,0.00,VWS V14.01,2013-10-29 03:28:00,
2013-10-28 23:33:00,36.0,32.5,30.32,East,84,0.0,0.0,87,0.00,,,0.00,VWS V14.01,2013-10-29 03:33:00,
2013-10-28 23:38:00,35.8,32.3,30.32,East,84,0.0,0.0,87,0.00,,,0.00,VWS V14.01,2013-10-29 03:38:00,
2013-10-28 23:43:00,35.7,32.5,30.32,East,84,0.0,2.0,88,0.00,,,0.00,VWS V14.01,2013-10-29 03:43:00,
2013-10-28 23:48:00,35.6,32.1,30.33,East,84,0.0,2.0,87,0.00,,,0.00,VWS V14.01,2013-10-29 03:48:00,
2013-10-28 23:53:00,35.4,32.2,30.32,East,84,0.0,2.0,88,0.00,,,0.00,VWS V14.01,2013-10-29 03:53:00,
2013-10-28 23:58:00,35.2,32.3,30.33,East,84,0.0,2.0,89,0.00,,,0.00,VWS V14.01,2013-10-29 03:58:00,